www.pogodaiklimat.ru

Погода и климат >> Архив погоды >> Казахстан >> Исатай


ПОГОДА в Исатай

  • Прогноз погоды в Исатай
  • Монитор погоды в Исатай
  • Климат города

АРХИВ ПОГОДЫ в Исатай

Время (UTC), дата Ветер
(напр.,м/с)
 
Видим.   Явления Облачность Т
(С)
Тd
(С)
f
(%)
Тe
(С)
Тes
(С)
Комфортность P
(гПа)
Po
(гПа)
Тmin
(С)
Tmax
(С)
R
(мм)
R24
(мм)
S
(см)
00 20.07 СЗ 2 20 км н/о +25.6 -22.8 3 +22 +22 комфорт 1009.6 1012.8
03 20.07 СВ 1 20 км ясно +27.8 -21.3 3 +23 +26 комфорт 1009.4 1012.5 <0.5
06 20.07 ЮВ 4 20 км н/о +33.4 -17.6 3 +29 +29 жарко 1009.2 1012.3
09 20.07 Ю 6 20 км ясно +37.8 -14.7 3 +33 +40 жарко 1008.6 1011.7
12 20.07 Ю 6 20 км ясно +38.1 -14.5 3 +33 +37 жарко 1008.2 1011.2
15 20.07 Ю 4 20 км ясно +35.7 -16.1 3 +31 +31 жарко 1007.7 1010.8 +38.2
18 20.07 Ю 2 19 км ясно +26.6 -22.1 3 +22 +22 комфорт 1008.3 1011.5 +38.2
21 20.07 ЮВ 1 20 км н/о +25.2 -23.1 3 +21 +21 комфорт 1008.1 1011.3
00 21.07 В 2 20 км ясно +25.9 -22.6 3 +22 +22 комфорт 1007.1 1010.3
03 21.07 ЮВ 2 20 км ясно +25.4 -22.9 3 +22 +24 комфорт 1007.3 1010.5 <0.5
06 21.07 ЮЗ 6 20 км н/о +35.2 -16.4 3 +30 +30 жарко 1008.4 1011.5
09 21.07 ЮЗ 7 19 км н/о +35.1 -16.5 3 +30 +30 жарко 1009.1 1012.2
12 21.07 Ю 5 20 км н/о +36.0 -15.9 3 +31 +31 жарко 1008.6 1011.7
15 21.07 Ю 5 20 км н/о +32.5 -18.2 3 +28 +28 жарко 1008.1 1011.2 +36.0
18 21.07 Ю 2 20 км ясно +25.8 -22.7 3 +22 +22 комфорт 1008.6 1011.8 +36.0
21 21.07 ЮЗ 3 20 км н/о +23.9 -23.9 3 +21 +21 комфорт 1008.6 1011.8
00 22.07 СЗ 3 20 км н/о +24.6 -23.5 3 +21 +21 комфорт 1009.1 1012.3
03 22.07 СЗ 4 20 км н/о +26.4 -22.2 3 +22 +22 комфорт 1010.0 1013.2 <0.5
06 22.07 С 4 20 км ясно +31.6 -18.8 3 +27 +35 жарко 1010.9 1014.0
09 22.07 СЗ 2 20 км н/о +36.0 -15.9 3 +31 +31 жарко 1010.6 1013.7
12 22.07 З 6 20 км н/о +36.9 -15.3 3 +32 +32 жарко 1009.6 1012.7
15 22.07 Ю 5 20 км ясно +34.6 -16.8 3 +30 +30 жарко 1009.1 1012.2 +37.6
18 22.07 З 3 20 км ясно +28.6 -20.8 3 +24 +24 комфорт 1009.6 1012.7 +37.6
21 22.07 СВ 3 20 км ясно +27.0 -21.8 3 +23 +23 комфорт 1010.1 1013.3
00 23.07 СВ 3 20 км ясно +24.9 -23.3 3 +21 +21 комфорт 1009.9 1013.1
06 23.07 СВ 7 20 км н/о +31.8 -18.6 3 +27 +27 жарко 1009.3 1012.4
09 23.07 СВ 6 20 км н/о +35.4 -16.3 3 +31 +31 жарко 1007.6 1010.7
12 23.07 СВ 5 20 км н/о +37.6 -14.8 3 +33 +33 жарко 1005.6 1008.6
15 23.07 Ю 4 20 км н/о +34.6 -16.8 3 +30 +30 жарко 1004.6 1007.7 +37.6
18 23.07 Ю 2 6000 м ясно +27.4 -21.6 3 +23 +23 комфорт 1004.8 1007.9 +37.6
21 23.07 Ю 1 20 км н/о +25.1 -23.1 3 +21 +21 комфорт 1003.5 1006.7
00 24.07 СЗ 4 20 км ясно +23.1 -24.5 3 +20 +20 1002.7 1005.9
03 24.07 С 10 20 км ясно +25.4 -22.9 3 +22 +22 комфорт 1003.6 1006.8 <0.5
06 24.07 С 14
{19}
7000 м ясно +28.9 -20.6 3 +24 +24 комфорт 1004.5 1007.6
09 24.07 С 12-17
{19}
19 км ясно +31.0 -19.2 3 +26 +26 жарко 1005.8 1008.9
12 24.07 С 10
{15}
20 км ясно +32.2 -18.4 3 +27 +28 жарко 1006.9 1010.0
15 24.07 С 7 20 км ясно +30.3 -19.6 3 +26 +26 жарко 1007.4 1010.5 +32.2
18 24.07 СЗ 1 16 км ясно +24.2 -23.7 3 +21 +21 комфорт 1008.5 1011.7 +32.2
21 24.07 С 1 20 км ясно +21.4 -25.6 3 +19 +19 1008.8 1012.0
00 25.07 С 1 20 км ясно +19.8 -26.7 3 +20 +20 1009.2 1012.4
03 25.07 В 4 20 км ясно +23.8 -24.0 3 +20 +22 1010.0 1013.2 <0.5
06 25.07 С 4 20 км ясно +29.6 -20.1 3 +25 +33 комфорт 1010.0 1013.1
09 25.07 СЗ 3 20 км ясно +30.8 -19.3 3 +26 +41 жарко 1009.1 1012.2
12 25.07 С 3 20 км н/о +30.8 -19.3 3 +26 +26 жарко 1008.3 1011.4
15 25.07 С 2 20 км ясно +29.9 -19.9 3 +25 +26 комфорт 1008.3 1011.4 +31.4
18 25.07 С 3 20 км н/о +26.4 -22.2 3 +22 +22 комфорт 1008.4 1011.6 +31.4
21 25.07 З 3 20 км н/о +25.2 -23.1 3 +21 +21 комфорт 1008.4 1011.6
00 26.07 С 2 20 км ясно +21.2 -25.7 3 +19 +19 1008.3 1011.5
03 26.07 В 3 20 км ясно +24.6 -23.5 3 +21 +23 комфорт 1009.1 1012.3 <0.5
06 26.07 СВ 2 20 км ясно +31.1 -19.1 3 +26 +38 жарко 1009.2 1012.3
09 26.07 С 4 20 км ясно +33.5 -17.5 3 +29 +40 жарко 1008.6 1011.7
12 26.07 СВ 2 20 км ясно +35.5 -16.2 3 +31 +40 жарко 1007.6 1010.7
15 26.07 С 4 19 км ясно +34.0 -17.2 3 +29 +30 жарко 1007.5 1010.6 +35.5
18 26.07 СВ 3 18 км ясно +29.4 -20.2 3 +25 +25 комфорт 1008.7 1011.8 +35.5
21 26.07 СЗ 2 20 км ясно +23.9 -23.9 3 +21 +21 комфорт 1009.3 1012.5

 

Местоположение метеостанции Исатай (Атырауская область, Казахстан): широта 46.80 долгота 50.07 высота над уровнем моря м.

В архиве по умолчанию представлена погода в Исатай за последнюю неделю. Архивные данные за месяц целиком и за предыдущие месяцы, начиная с января 2011 года, Вы можете получить, выбрав интересующий диапазон дат из раскрывающегося списка и нажав кнопку "Ввод!".

Внимание! Время в таблицах - всемирное. Для получения местного времени необходимо прибавить поправку, которая в Исатай равна 5 ч.

Смотрите также архив погоды в соседних городах и на ближайших метеорологических станциях:

Погода в Ганюшкино (Атырауская область, Казахстан) (65 км)
Погода в Зеленге (Астраханская область, Россия) (131 км)
Погода в Атырау (Атырауская область, Казахстан) (145 км)
Погода в Махамбете (Атырауская область, Казахстан) (150 км)
Погода в Жанауштогане (Атырауская область, Казахстан) (155 км)
Погода в Досанге (Астраханская область, Россия) (163 км)
Погода в Астрахани (Астраханская область, Россия) (170 км)
Погода на Кулалы Острове (Мангистауская область, Казахстан) (199 км)
Погода в Индерборском (Атырауская область, Казахстан) (222 км)
Погода в Харабали (Астраханская область, Россия) (224 км)

Пояснения к столбцам:

Ветер - указаны скорость ветра в м/с - средняя за 10 мин, порывы в срок и между сроками (в фигурных скобках) и направление, откуда дует ветер: С - северный, СВ - северо-восточный, В - восточный, ЮВ - юго-восточный, Ю - южный, ЮЗ - юго-западный, З - западный, СЗ - северо-западный.
Видимость - горизонтальная дальность видимости в метрах или километрах. При видимости от 1 до 10 км при отсутствии осадков обычно наблюдается дымка, при ухудшении видимости до 1 км и менее - туман. В сухую погоду видимость может ухудшаться дымом, пылью или мглою.
Явления - указаны атмосферные явления, наблюдавшиеся в срок или в последний час перед сроком; фигурными скобками обозначены явления, наблюдавшиеся между сроками (за 1-3 часа до срока); квадратными скобками обозначены град или гололедные отложения с указанием их диаметра в мм.
Облачность - указаны через наклонную черту общая и нижняя облачность в баллах и высота нижней границы облаков в метрах; квадратными скобками обозначены формы облаков: Ci - перистые, Cs - перисто-слоистые, Cc - перисто-кучевые, Ac - высококучевые, As - высокослоистые, Sc - слоисто-кучевые, Ns - слоисто-дождевые, Cu - кучевые, Cb - кучево-дождевые. Подробнее классификацию облаков см. в Атласе облаков (PDF).
T - Температура воздуха - температура, измеренная на высоте 2 м над землей.
Td - Температура точки росы - температура, при понижении до которой содержащийся в воздухе водяной пар достигнет насыщения.
f - Относительная влажность воздуха - влажноcть воздуха, измеренная на высоте 2 м над землей.
Te - Эффективная температура - температура, которую ощущает одетый по сезону человек в тени. Характеристика душности погоды. При расчете учитывается влияние влажности воздуха и скорости ветра на теплоощущения человека.
Tes - Эффективная температура на солнце - температура, которую ощущает человек, с поправкой на солнечный нагрев. Характеристика знойности погоды. Зависит от высоты солнца над горизонтом, облачности и скорости ветра. Ночью, в пасмурную погоду, а также при ветре 12 м/с и более поправка равна нулю.
P - Атмосферное давление - приведенное к уровню моря атмосферное давление.
Po - Атмосферное давление - измеренное на уровне метеостанции атмосферное давление.
Tmin - Минимальная температура - минимум температуры воздуха на высоте 2 м над землей.
Tmax - Максимальная температура - максимум температуры воздуха на высоте 2 м над землей.
R - Количество осадков - Количество выпавших осадков за период времени, мм. При наведении курсора мыши на число - период времени, за который выпало указанное количество осадков.
R24 - Количество осадков - Количество выпавших осадков за 24 часа, мм.
S - Снежный покров - Высота снежного покрова, см. При наведении курсора мыши на число - состояние снежного покрова и степень покрытия местности в баллах.